| time (UTC) | temp F | wind direction | speed knots | gust knots | rain 1hr in | rain 24hr in | rain mn in | humidity % | barometer mb |
| 20260905011534 | 57 | 337 | 1.7 | 2.6 | 0.00 | 0.02 | 0.02 | 78 | 1016.5 |
| 20260905010142 | 57 | 322 | 0.0 | 2.6 | 0.00 | 0.02 | 0.02 | 77 | 1016.3 |
| 20260905003107 | 57 | 292 | 0.0 | 2.6 | 0.00 | 0.02 | 0.02 | 79 | 1016.2 |
| 20260905001532 | 57 | 286 | 0.9 | 3.5 | 0.00 | 0.02 | 0.02 | 81 | 1016.1 |
| 20260905000106 | 57 | 254 | 0.9 | 3.5 | 0.00 | 0.02 | 0.02 | 80 | 1016.1 |
| 20260904233030 | 57 | 171 | 1.7 | 4.3 | 0.00 | 0.02 | 0.02 | 79 | 1016.0 |
| 20260904231643 | 58 | 148 | 1.7 | 4.3 | 0.00 | 0.02 | 0.02 | 78 | 1015.9 |
| 20260904224532 | 57 | 112 | 1.7 | 6.1 | 0.00 | 0.02 | 0.02 | 78 | 1015.8 |
| 20260904223031 | 56 | 73 | 2.6 | 5.2 | 0.00 | 0.02 | 0.02 | 80 | 1015.8 |
| 20260904221608 | 56 | 112 | 1.7 | 7.0 | 0.00 | 0.02 | 0.02 | 82 | 1015.8 |
| 20260904220035 | 56 | 138 | 1.7 | 5.2 | 0.00 | 0.02 | 0.02 | 84 | 1015.8 |
| 20260904214535 | 56 | 160 | 0.9 | 3.5 | 0.00 | 0.02 | 0.02 | 84 | 1015.8 |
| 20260904213035 | 56 | 76 | 0.9 | 3.5 | 0.00 | 0.02 | 0.02 | 84 | 1015.8 |
| 20260904211641 | 57 | 348 | 1.7 | 4.3 | 0.00 | 0.02 | 0.02 | 84 | 1015.6 |
| 20260904210034 | 57 | 270 | 0.0 | 3.5 | 0.00 | 0.02 | 0.02 | 85 | 1015.5 |
| 20260904204536 | 56 | 282 | 0.9 | 4.3 | 0.00 | 0.02 | 0.02 | 85 | 1015.4 |
| 20260904203034 | 55 | 332 | 0.9 | 3.5 | 0.00 | 0.02 | 0.02 | 86 | 1015.4 |
| 20260904201529 | 55 | 360 | 0.0 | 1.7 | 0.00 | 0.02 | 0.02 | 86 | 1015.6 |
| 20260904200036 | 55 | 314 | 1.7 | 4.3 | 0.00 | 0.02 | 0.02 | 85 | 1015.6 |
| 20260904194536 | 56 | 325 | 2.6 | 5.2 | 0.00 | 0.02 | 0.02 | 85 | 1015.6 |
| 20260904193034 | 56 | 309 | 1.7 | 5.2 | 0.00 | 0.02 | 0.02 | 86 | 1015.7 |
| 20260904191531 | 55 | 309 | 1.7 | 6.1 | 0.00 | 0.02 | 0.02 | 87 | 1015.7 |
| 20260904190030 | 55 | 309 | 1.7 | 5.2 | 0.00 | 0.02 | 0.02 | 86 | 1015.7 |
| 20260904184606 | 55 | 301 | 0.9 | 2.6 | 0.00 | 0.02 | 0.02 | 87 | 1015.7 |
| 20260904181532 | 55 | 284 | 0.9 | 3.5 | 0.00 | 0.02 | 0.02 | 88 | 1015.6 |
| 20260904180051 | 56 | 267 | 2.6 | 6.1 | 0.00 | 0.02 | 0.02 | 92 | 1015.5 |
| 20260904173036 | 50 | 337 | 0.0 | 0.9 | 0.00 | 0.02 | 0.02 | 95 | 1015.3 |
| 20260904171535 | 49 | 337 | 0.0 | 0.9 | 0.00 | 0.02 | 0.02 | 95 | 1015.5 |
| 20260904170035 | 50 | 337 | 0.9 | 2.6 | 0.01 | 0.02 | 0.02 | 95 | 1015.3 |
| 20260904164534 | 51 | 323 | 1.7 | 3.5 | 0.01 | 0.02 | 0.02 | 95 | 1015.2 |
| 20260904161531 | 51 | 322 | 0.9 | 4.3 | 0.01 | 0.02 | 0.01 | 96 | 1015.1 |
| 20260904160105 | 49 | 330 | 1.7 | 3.5 | 0.00 | 0.01 | 0.01 | 96 | 1015.0 |
| 20260904154608 | 49 | 337 | 1.7 | 2.6 | 0.00 | 0.01 | 0.01 | 96 | 1014.9 |
| 20260904153034 | 49 | 227 | 0.0 | 2.6 | 0.00 | 0.01 | 0.01 | 96 | 1014.7 |
| 20260904151539 | 48 | 195 | 0.9 | 2.6 | 0.00 | 0.01 | 0.01 | 96 | 1014.6 |
| 20260904150106 | 47 | 153 | 1.7 | 4.3 | 0.00 | 0.01 | 0.01 | 96 | 1014.4 |
| 20260904144539 | 46 | 135 | 1.7 | 3.5 | 0.00 | 0.01 | 0.01 | 96 | 1014.4 |
| 20260904143034 | 46 | 147 | 1.7 | 3.5 | 0.00 | 0.01 | 0.01 | 96 | 1014.3 |
| 20260904141531 | 46 | 168 | 1.7 | 3.5 | 0.00 | 0.01 | 0.01 | 96 | 1014.1 |
| 20260904140032 | 45 | 164 | 1.7 | 3.5 | 0.00 | 0.01 | 0.01 | 96 | 1013.9 |
| 20260904134535 | 45 | 157 | 2.6 | 4.3 | 0.00 | 0.01 | 0.01 | 96 | 1013.8 |
| 20260904133036 | 45 | 136 | 2.6 | 4.3 | 0.00 | 0.01 | 0.01 | 96 | 1013.7 |
| 20260904131530 | 45 | 136 | 2.6 | 3.5 | 0.00 | 0.01 | 0.01 | 96 | 1013.6 |
| 20260904130030 | 46 | 165 | 1.7 | 3.5 | 0.00 | 0.01 | 0.01 | 96 | 1013.4 |
| 20260904124606 | 46 | 180 | 1.7 | 2.6 | 0.01 | 0.01 | 0.01 | 96 | 1013.5 |
| 20260904123034 | 46 | 177 | 1.7 | 4.3 | 0.01 | 0.01 | 0.01 | 96 | 1013.4 |
| 20260904121531 | 46 | 145 | 2.6 | 3.5 | 0.01 | 0.01 | 0.01 | 96 | 1013.3 |
| 20260904113031 | 46 | 180 | 0.9 | 2.6 | 0.00 | 0.00 | 0.00 | 95 | 1013.1 |
| 20260904111535 | 46 | 180 | 0.0 | 2.6 | 0.00 | 0.00 | 0.00 | 95 | 1013.0 |
| 20260904110034 | 46 | 180 | 0.9 | 2.6 | 0.00 | 0.00 | 0.00 | 95 | 1012.8 |
| 20260904104531 | 46 | 157 | 0.9 | 3.5 | 0.00 | 0.00 | 0.00 | 95 | 1012.7 |
| 20260904103036 | 46 | 173 | 1.7 | 2.6 | 0.00 | 0.00 | 0.00 | 95 | 1012.6 |
| 20260904101608 | 46 | 157 | 1.7 | 3.5 | 0.00 | 0.00 | 0.00 | 95 | 1012.5 |
| 20260904100035 | 46 | 179 | 0.9 | 2.6 | 0.00 | 0.00 | 0.00 | 95 | 1012.4 |
| 20260904094532 | 46 | 181 | 1.7 | 3.5 | 0.00 | 0.00 | 0.00 | 95 | 1012.3 |
| 20260904093038 | 46 | 166 | 2.6 | 4.3 | 0.00 | 0.00 | 0.00 | 95 | 1012.3 |
| 20260904091530 | 46 | 141 | 3.5 | 4.3 | 0.00 | 0.00 | 0.00 | 95 | 1012.3 |
| 20260904090107 | 46 | 159 | 1.7 | 4.3 | 0.00 | 0.00 | 0.00 | 95 | 1012.3 |
| 20260904084609 | 45 | 178 | 3.5 | 7.0 | 0.00 | 0.00 | 0.00 | 95 | 1012.3 |
| 20260904083035 | 45 | 192 | 2.6 | 4.3 | 0.00 | 0.00 | 0.00 | 95 | 1012.1 |
| 20260904081530 | 45 | 176 | 2.6 | 6.1 | 0.00 | 0.00 | 0.00 | 95 | 1012.2 |
| 20260904080105 | 45 | 180 | 0.9 | 3.5 | 0.00 | 0.00 | 0.00 | 95 | 1012.2 |
| 20260904074531 | 46 | 180 | 1.7 | 2.6 | 0.00 | 0.00 | 0.00 | 95 | 1012.3 |
| 20260904073036 | 46 | 130 | 0.9 | 3.5 | 0.00 | 0.00 | 0.00 | 94 | 1012.2 |
| 20260904071535 | 46 | 192 | 0.9 | 3.5 | 0.00 | 0.00 | 0.00 | 94 | 1012.2 |
| 20260904070109 | 46 | 162 | 0.9 | 3.5 | 0.00 | 0.00 | 0.00 | 94 | 1012.1 |
| 20260904064535 | 46 | 157 | 0.0 | 1.7 | 0.00 | 0.00 | 0.00 | 94 | 1012.1 |
| 20260904063107 | 46 | 183 | 2.6 | 4.3 | 0.00 | 0.00 | 0.00 | 94 | 1012.1 |
| 20260904061535 | 46 | 201 | 2.6 | 5.2 | 0.00 | 0.00 | 0.00 | 94 | 1012.1 |
| 20260904054651 | 47 | 143 | 2.6 | 4.3 | 0.00 | 0.00 | 0.00 | 94 | 1012.0 |
| 20260904053032 | 47 | 186 | 1.7 | 3.5 | 0.00 | 0.00 | 0.00 | 94 | 1012.1 |
| 20260904043105 | 49 | 90 | 0.9 | 2.6 | 0.00 | 0.00 | 0.00 | 93 | 1012.4 |
| 20260904041533 | 49 | 169 | 0.9 | 3.5 | 0.00 | 0.00 | 0.00 | 92 | 1012.4 |
| 20260904040034 | 49 | 213 | 1.7 | 3.5 | 0.00 | 0.00 | 0.00 | 92 | 1012.3 |
| 20260904034536 | 49 | 178 | 1.7 | 5.2 | 0.00 | 0.00 | 0.00 | 91 | 1012.0 |
| 20260904033033 | 49 | 157 | 0.9 | 2.6 | 0.00 | 0.00 | 0.00 | 91 | 1012.0 |
| 20260904031535 | 49 | 157 | 1.7 | 2.6 | 0.00 | 0.01 | 0.00 | 90 | 1012.0 |
| 20260904030107 | 49 | 158 | 1.7 | 3.5 | 0.00 | 0.02 | 0.00 | 89 | 1011.9 |
| 20260904013148 | 53 | 270 | 0.9 | 2.6 | 0.00 | 0.14 | 0.00 | 87 | 1011.7 |